{"data":{"norad_id":69046,"intl_designator":"2026-101X","name":"STARLINK-37666","alt_names":[],"object_type":"PAYLOAD","status":"ACTIVE","operator":null,"country":"US","launch_date":"2026-05-06","launch_site_code":"AFWTR","launch_vehicle":null,"mission":null,"orbit_class":"UNKNOWN","rcs_meters":null,"size_class":null,"mass_kg":null,"dimensions":null,"purposes":["comms"],"wikipedia_slug":null,"has_3d_model":false,"image_url":null,"decayed_at":null,"tle_current":{"epoch":"2026-09-20T01:04:50.661120Z","epoch_age_seconds":76641,"freshness":"FRESH","line1":"1 69046U 26101X   26263.04503080  .00015658  00000+0  48671-3 0  9997","line2":"2 69046  97.2847 116.6076 0001634  90.3262 269.8168 15.33419631 21118","mean_motion":15.33419631,"eccentricity":0.0001634,"inclination_deg":97.2847,"raan_deg":116.6076,"arg_perigee_deg":90.3262,"mean_anomaly_deg":269.8168,"bstar":0.00048671,"rev_number":2111,"period_min":93.907758247553,"perigee_km":464.50038613998,"apogee_km":466.73692548831,"semimajor_km":6843.7556558141,"source":"CELESTRAK","updated_at":"2026-09-20T09:00:44.062755Z"}}}